Charter Quote
Worldwide +1-877-727-2538 Call
Select Language Lang
SAFETY RELIABILITY EXPERIENCE

Private Jet Charter Services - Changbei Intl (ZSCN)

Paramount Business Jets offers private jet charter flights and luxury airliner charters to and from Changbei Intl.

AIRPORT INFORMATION
ICAOZSCN
LOCATIONNanchang, China
FACILITY TYPEAIRPORT

At Paramount Business Jets you can hire chartered private jets to and from Changbei Intl with as little as 4 hours of notice. All flights booked via Paramount Business Jets are operated by certified direct air carriers that meet and exceed the FAA part 135 and 121 protocol or a foreign equivalent safety authority. Furthermore, Paramount Business Jets subscribes to ARGUS for their third party safety checks of operators, aircraft, and crews prior each and every flight to and from Changbei Intl and worldwide.

  • Quote a trip using Changbei Intl or call us 24/7 - 365 days a year at +1-877-727-2538.
Questions? Call +1-877-727-2538

METAR Weather Data at Changbei Intl, ZSCN

STATIONZSCN
OBSERVEDFri Aug 9, 17:00 UTC
NOWThu Nov 14, 16:32 UTC
AGE2327:32 hr ago
WINDNNW at 9 mph
VISIBILITYgreater than 7 miles
CLOUDSclear skies
TEMP88°F (31°C)
DEWPT75°F (24°C)
HUMIDITY66%
HEAT INDEX98°F (37°C)
BAROMETER996 hPa (29.41 in Hg)
METARZSCN 091700Z 33004MPS 300V010 CAVOK 31/24 Q0996 NOSIG

Call us on +1-877-727-2538 (24 Hours), Check our Pricing, or Get a Quick Quote.

Find Airports Near any Location

Processing
...